星链-6191 (STARLINK-6191 )

导读 | 豆包AI

STARLINK-6191是美国太空探索技术公司 SpaceX 星链计划中的一颗卫星,于2023年5月4日发射。星链计划旨在搭建全球卫星互联网络,为全球提供高速互联网服务,该卫星入轨后将助力扩充星链星座规模,提升全球网络覆盖能力与服务稳定性。</think_never_used_51bce0c785ca2f68081bfa7d91973934>

Basic Information
目录编号:
56378
目录名称:
STARLINK-6191
国际标识:
2023-061E
轨道中心:
EARTH
卫星名称:
星链-6191
卫星全名:
星链-6191 (STARLINK-6191 )
卫星状态:
在轨 (已飞行1046 天)
发射日期:
2023-05-04 UTC
国别 :
美国 (US)
星等 :
--
Orbit Information
数据来源 国际轨道数据
星历时间: 2026-03-15T22:00:02+0800
6小时前
查看轨道信息
半长轴: 6863.828km
偏心率: 0.0001151
轨道倾角: 43.004°
近地点辐角 275.756°
升交点赤经 164.036°
平近点角 233.093°
近地点: 484.9km
远地点: 486.482km
周期: 94.321分钟
每日圈数: 15.266983
Detailed Information
固有亮度:
5
最大亮度:
2.5
卫星平台:
Starlink v1.5
覆盖范围:
全球
运营商:
太空探索技术公司
运营商所在国:
美国
制造商(研发单位):
太空探索技术公司
制造商所在国:
美国
使用方式:
暂无
Satellite Introduction
星链(Starlink)计划是由太空探索技术公司(SpaceX)提出的一个巨型低轨卫星互联网星座项目,计划在2019年至2024年间在太空搭建由约1.2万颗卫星组成的“星链”网络,其中1584颗将部署在地球上空550千米处的近地轨道,并从2020年开始工作。该卫星仍在工作。
2D Orbit Map
3D Orbit Map
Orbit Altitude Analysis Chart
Orbit Inclination Analysis Chart
Orbit Comprehensive Analysis Chart
View Comprehensive Chart